Вернуться в каталог

DMSP 5D-2 F11 DEB

АктивенSSO
NORAD 28309·DEBRIS·🇺🇸 United States

Запущен Nov 28, 1991 с Vandenberg Space Force Base

Loading…

Ближайшие Пролёты (ближайшие 24 часа)

TLE

СвежийSource: Space-Track

Эпоха: Sep 14, 2026, 08:32 UTC

1 28309U 91082W   26257.35567770  .00000056  00000-0  44514-4 0  9997
2 28309  98.7036 278.5701 0014631 356.0538  15.8927 14.22696589162229

Отслеживайте DMSP 5D-2 F11 DEB в реальном времени с AllMySat

Download on the App Store